• In Hungary
  • List of Countries
  • For 7 days
  • Water Temperature
  • Satellite Maps
  • Weather Map
  • News
  • Weather Widgets
  • user-avatar
    Login

    Hourly Weather Veszprem

    Today, 22 January, Monday

    Time Temperature Precipitation Wind Pressure Humidity
    00:00 -4°C° 0 mm 6 mps 739 mmHg 79%
    01:00 -4°C° 0 mm 6 mps 739 mmHg 75%
    02:00 -4°C° 0 mm 5 mps 739 mmHg 76%
    03:00 -5°C° 0 mm 5 mps 739 mmHg 77%
    04:00 -5°C° 0 mm 5 mps 739 mmHg 78%
    05:00 -4°C° 0 mm 4 mps 740 mmHg 78%
    06:00 -4°C° 0 mm 3 mps 740 mmHg 79%
    07:00 -4°C° 0 mm 3 mps 740 mmHg 79%
    08:00 -3°C° 0 mm 2 mps 740 mmHg 74%
    09:00 -2°C° 0 mm 2 mps 740 mmHg 69%
    10:00 +1°C° 0 mm 1 mps 740 mmHg 64%
    11:00 +2°C° 0 mm 1 mps 740 mmHg 59%
    12:00 +3°C° 0 mm 1 mps 739 mmHg 54%
    13:00 +2°C° 0 mm 2 mps 739 mmHg 51%
    14:00 +2°C° 0 mm 2 mps 739 mmHg 54%
    15:00 +1°C° 0 mm 2 mps 739 mmHg 57%
    16:00 +1°C° 0 mm 2 mps 738 mmHg 60%
    17:00 +1°C° 0 mm 2 mps 738 mmHg 62%
    18:00 -1°C° 0 mm 3 mps 738 mmHg 64%
    19:00 -1°C° 0 mm 3 mps 738 mmHg 66%
    20:00 -1°C° 0 mm 3 mps 738 mmHg 67%
    21:00 -1°C° 0 mm 3 mps 738 mmHg 68%
    22:00 -1°C° 0 mm 3 mps 738 mmHg 69%
    23:00 -1°C° 0 mm 2 mps 739 mmHg 70%

    Tomorrow, 23 January, Tuesday

    Time Temperature Precipitation Wind Pressure Humidity
    00:00 -1°C° 0 mm 2 mps 739 mmHg 71%
    01:00 -1°C° 0 mm 2 mps 739 mmHg 72%
    02:00 -1°C° 0 mm 2 mps 740 mmHg 73%
    03:00 -1°C° 0 mm 2 mps 740 mmHg 74%
    04:00 -1°C° 0 mm 2 mps 740 mmHg 75%
    05:00 +1°C° 0.1 mm 1 mps 741 mmHg 77%
    06:00 +1°C° 0.1 mm 1 mps 741 mmHg 79%
    07:00 +1°C° 0.1 mm 1 mps 742 mmHg 81%
    08:00 +1°C° 0.2 mm 1 mps 743 mmHg 81%
    09:00 +2°C° 0.2 mm 1 mps 743 mmHg 81%
    10:00 +2°C° 0.2 mm 1 mps 744 mmHg 82%
    11:00 +2°C° 0 mm 2 mps 744 mmHg 80%
    12:00 +2°C° 0 mm 3 mps 745 mmHg 78%
    13:00 +3°C° 0 mm 3 mps 745 mmHg 76%
    14:00 +2°C° 0 mm 3 mps 746 mmHg 79%
    15:00 +3°C° 0 mm 2 mps 746 mmHg 82%
    16:00 +3°C° 0 mm 2 mps 747 mmHg 85%
    17:00 +3°C° 0 mm 1 mps 747 mmHg 87%
    18:00 +2°C° 0 mm 1 mps 748 mmHg 89%
    19:00 +2°C° 0 mm 1 mps 748 mmHg 91%
    20:00 0°C° 0 mm 0 mps 748 mmHg 91%
    21:00 0°C° 0 mm 0 mps 749 mmHg 92%
    22:00 0°C° 0 mm 0 mps 749 mmHg 92%
    23:00 0°C° 0 mm 0 mps 749 mmHg 92%

    Day after tomorrow, 24 January, Wednesday

    Time Temperature Precipitation Wind Pressure Humidity
    00:00 +1°C° 0 mm 1 mps 749 mmHg 92%
    01:00 +1°C° 0 mm 1 mps 750 mmHg 92%
    02:00 +1°C° 0 mm 1 mps 750 mmHg 92%
    03:00 +1°C° 0 mm 1 mps 750 mmHg 92%
    04:00 +1°C° 0 mm 1 mps 750 mmHg 93%
    05:00 -1°C° 0 mm 2 mps 750 mmHg 93%
    06:00 -1°C° 0 mm 2 mps 750 mmHg 92%
    07:00 -1°C° 0 mm 2 mps 750 mmHg 92%
    08:00 +1°C° 0 mm 2 mps 751 mmHg 89%
    09:00 +1°C° 0 mm 3 mps 751 mmHg 86%
    10:00 +2°C° 0 mm 3 mps 751 mmHg 82%
    11:00 +3°C° 0 mm 3 mps 751 mmHg 79%
    12:00 +4°C° 0 mm 4 mps 751 mmHg 76%
    13:00 +4°C° 0 mm 4 mps 751 mmHg 72%
    14:00 +4°C° 0 mm 4 mps 750 mmHg 75%
    15:00 +4°C° 0 mm 4 mps 750 mmHg 77%
    16:00 +3°C° 0 mm 3 mps 750 mmHg 79%
    17:00 +3°C° 0 mm 3 mps 750 mmHg 82%
    18:00 +1°C° 0 mm 4 mps 750 mmHg 84%
    19:00 0°C° 0 mm 4 mps 750 mmHg 87%
    20:00 0°C° 0 mm 4 mps 749 mmHg 87%
    21:00 0°C° 0 mm 4 mps 749 mmHg 87%
    22:00 0°C° 0 mm 4 mps 749 mmHg 87%
    23:00 -1°C° 0 mm 4 mps 749 mmHg 87%

    25 January, Thursday

    Time Temperature Precipitation Wind Pressure Humidity
    00:00 -1°C° 0 mm 4 mps 749 mmHg 88%
    01:00 -1°C° 0 mm 4 mps 748 mmHg 88%
    02:00 -2°C° 0 mm 4 mps 748 mmHg 88%
    03:00 -2°C° 0 mm 4 mps 748 mmHg 87%
    04:00 -2°C° 0 mm 4 mps 747 mmHg 87%
    05:00 -2°C° 0 mm 4 mps 747 mmHg 87%
    06:00 -2°C° 0 mm 4 mps 747 mmHg 87%
    07:00 -3°C° 0 mm 4 mps 747 mmHg 87%
    08:00 -2°C° 0 mm 4 mps 747 mmHg 82%
    09:00 -1°C° 0 mm 4 mps 747 mmHg 78%
    10:00 0°C° 0 mm 4 mps 746 mmHg 73%
    11:00 +3°C° 0 mm 4 mps 746 mmHg 70%
    12:00 +4°C° 0 mm 4 mps 746 mmHg 67%
    13:00 +5°C° 0 mm 5 mps 745 mmHg 64%
    14:00 +5°C° 0 mm 4 mps 745 mmHg 67%
    15:00 +5°C° 0 mm 4 mps 744 mmHg 70%
    16:00 +5°C° 0 mm 4 mps 744 mmHg 73%
    17:00 +5°C° 0 mm 4 mps 744 mmHg 75%
    18:00 +4°C° 0 mm 4 mps 743 mmHg 76%
    19:00 +3°C° 0 mm 5 mps 743 mmHg 78%
    20:00 +2°C° 0 mm 5 mps 743 mmHg 78%
    21:00 +2°C° 0 mm 5 mps 743 mmHg 79%
    22:00 +2°C° 0 mm 5 mps 743 mmHg 80%
    23:00 +2°C° 0 mm 5 mps 742 mmHg 80%

    26 January, Friday

    Time Temperature Precipitation Wind Pressure Humidity
    00:00 +2°C° 0 mm 5 mps 742 mmHg 81%
    01:00 +2°C° 0 mm 5 mps 742 mmHg 81%
    02:00 +2°C° 0 mm 5 mps 742 mmHg 81%
    03:00 +2°C° 0 mm 5 mps 741 mmHg 82%
    04:00 +2°C° 0 mm 5 mps 741 mmHg 82%
    05:00 +2°C° 0 mm 5 mps 741 mmHg 83%
    06:00 +2°C° 0 mm 5 mps 741 mmHg 83%
    07:00 +2°C° 0 mm 5 mps 741 mmHg 83%
    08:00 +3°C° 0 mm 5 mps 741 mmHg 78%
    09:00 +5°C° 0 mm 6 mps 742 mmHg 73%
    10:00 +7°C° 0 mm 6 mps 742 mmHg 69%
    11:00 +8°C° 0 mm 7 mps 742 mmHg 66%
    12:00 +9°C° 0 mm 7 mps 741 mmHg 62%
    13:00 +10°C° 0 mm 8 mps 741 mmHg 59%
    14:00 +9°C° 0 mm 7 mps 741 mmHg 62%
    15:00 +9°C° 0 mm 6 mps 741 mmHg 64%
    16:00 +9°C° 0 mm 5 mps 741 mmHg 66%
    17:00 +8°C° 0 mm 5 mps 741 mmHg 67%
    18:00 +7°C° 0 mm 5 mps 741 mmHg 69%
    19:00 +6°C° 0 mm 5 mps 741 mmHg 70%
    20:00 +6°C° 0 mm 5 mps 741 mmHg 72%
    21:00 +5°C° 0 mm 5 mps 742 mmHg 73%
    22:00 +5°C° 0 mm 4 mps 742 mmHg 74%
    23:00 +5°C° 0 mm 4 mps 742 mmHg 76%

    27 January, Saturday

    Time Temperature Precipitation Wind Pressure Humidity
    00:00 +4°C° 0 mm 3 mps 743 mmHg 79%
    01:00 +4°C° 0 mm 3 mps 743 mmHg 81%
    02:00 +4°C° 0 mm 2 mps 743 mmHg 83%
    03:00 +4°C° 0 mm 2 mps 743 mmHg 85%
    04:00 +5°C° 0 mm 1 mps 744 mmHg 86%
    05:00 +5°C° 0 mm 1 mps 744 mmHg 87%
    06:00 +5°C° 0 mm 1 mps 744 mmHg 87%
    07:00 +5°C° 0 mm 1 mps 745 mmHg 87%
    08:00 +4°C° 0 mm 2 mps 745 mmHg 84%
    09:00 +5°C° 0 mm 2 mps 746 mmHg 81%
    10:00 +4°C° 0 mm 3 mps 747 mmHg 78%
    11:00 +5°C° 0 mm 3 mps 747 mmHg 76%
    12:00 +5°C° 0 mm 3 mps 747 mmHg 73%
    13:00 +7°C° 0 mm 3 mps 748 mmHg 70%
    14:00 +5°C° 0 mm 3 mps 748 mmHg 72%
    15:00 +5°C° 0 mm 3 mps 748 mmHg 73%
    16:00 +6°C° 0 mm 2 mps 748 mmHg 75%
    17:00 +5°C° 0 mm 2 mps 749 mmHg 79%
    18:00 +4°C° 0 mm 2 mps 749 mmHg 82%
    19:00 +4°C° 0 mm 2 mps 750 mmHg 86%
    20:00 +3°C° 0 mm 2 mps 750 mmHg 86%
    21:00 +3°C° 0 mm 2 mps 751 mmHg 86%
    22:00 +2°C° 0 mm 3 mps 751 mmHg 87%
    23:00 +2°C° 0 mm 3 mps 751 mmHg 86%
    Show more